Location: Newark
(51.0500°N, 12.4500°E)
Time: 20:04:13
(UTC+00:00)

Tiros 1 - Pass Details

Date: 25 February 2020
Orbit: 630 x 664 km, 48.4° (Epoch: 06 April)

Event Time Altitude Azimuth Distance (km) Brightness Sun altitude
Rises 23:20:06 0° 203° (SSW) 2,933 - -48.0°
Reaches altitude 10° 23:23:04 10° 184° (S) 2,021 - -48.0°
Maximum altitude 23:26:09 18° 143° (SE) 1,573 - -47.9°
Drops below altitude 10° 23:29:13 10° 101° (E) 2,016 - -47.9°
Sets 23:32:10 0° 82° (E) 2,923 - -47.9°
